This demonstration page uses our WeatherBlox Daily Observations layout. Learn more.

Left ArrowRight Arrow

Hourly Observations for March 25, 2019

Temp ( °F °C ) Dew Point ( °F °C ) Humidity (%) Winds ( mph kmh ) Pressure ( in mb ) Visibility ( mi km ) Precip ( " mm )
12:24 am 00:24 Cloudy with Mist and Fog 47 8.3 42 5.6 83 83 N 12 19 30.21 1023 5 8 0.00 0.00
12:52 am 00:52 Cloudy 47 8.3 42 5.6 83 83 N 15 24 30.20 1023 9 14 0.00 0.00
1:52 am 01:52 Cloudy 47 8.3 41 5 80 80 N 10 17 30.22 1023 10 16 0.00 0.00
2:52 am 02:52 Cloudy 46 7.8 40 4.4 79 79 N 13 20 30.22 1023 10 16 0.00 0.00
3:39 am 03:39 Cloudy 45 7.2 40 4.4 83 83 N 15 24 30.24 1024 9 14 0.00 0.00
3:52 am 03:52 Cloudy 45 7.2 40 4.4 83 83 N 14 22 30.23 1024 10 16 0.00 0.00
4:52 am 04:52 Cloudy 44 6.7 38 3.3 79 79 NNE 13 20 30.25 1024 9 14 0.00 0.00
5:52 am 05:52 Cloudy 42 5.6 36 2.2 79 79 N 14 22 30.27 1025 10 16 0.00 0.00
6:15 am 06:15 Cloudy 42 5.6 37 2.8 82 82 N 14 22 30.30 1026 10 16 0.00 0.00
6:35 am 06:35 Cloudy 41 5 36 2.2 82 82 NNW 15 24 30.31 1026 10 16 0.00 0.00
6:52 am 06:52 Cloudy 41 5 35 1.7 79 79 NNW 13 20 30.30 1026 10 16 0.00 0.00
7:13 am 07:13 Cloudy 40 4.4 35 1.7 83 83 N 12 19 30.33 1027 10 16 0.00 0.00
7:52 am 07:52 Cloudy 40 4.4 35 1.7 83 83 N 15 24 30.32 1027 10 16 0.00 0.00
8:52 am 08:52 Cloudy 40 4.4 35 1.7 83 83 N 10 17 30.33 1027 8 13 0.00 0.00
8:59 am 08:59 Cloudy 40 4.4 35 1.7 83 83 N 12 19 30.35 1028 10 16 0.00 0.00
9:52 am 09:52 Cloudy 41 5 35 1.7 79 79 N 12 19 30.35 1028 10 16 0.00 0.00
10:52 am 10:52 Cloudy 42 5.6 34 1.1 73 73 N 9 15 30.36 1028 10 16 0.00 0.00
11:52 am 11:52 Mostly Cloudy 43 6.1 34 1.1 71 71 N 10 17 30.36 1028 10 16 0.00 0.00
12:52 pm 12:52 Partly Cloudy 46 7.8 34 1.1 63 63 NNW 10 17 30.37 1028 10 16 0.00 0.00
12:59 pm 12:59 Mostly Cloudy 46 7.8 34 1.1 63 63 NNW 10 17 30.37 1028 10 16 0.00 0.00
1:45 pm 13:45 Partly Cloudy 47 8.3 35 1.7 63 63 NNW 6 9 30.36 1028 10 16 0.00 0.00
1:52 pm 13:52 Partly Cloudy 48 8.9 36 2.2 63 63 NNW 7 11 30.35 1028 10 16 0.00 0.00
2:52 pm 14:52 Partly Cloudy 50 10 36 2.2 59 59 NNW 6 9 30.34 1028 10 16 0.00 0.00
3:03 pm 15:03 Mostly Cloudy 49 9.4 36 2.2 61 61 NNW 8 13 30.34 1028 10 16 0.00 0.00
3:52 pm 15:52 Cloudy 49 9.4 37 2.8 64 64 N 7 11 30.34 1027 10 16 0.00 0.00
4:46 pm 16:46 Mostly Cloudy 52 11 37 3 58 58 NNW 8 13 30.33 1027 10 16 0.00 0.00
4:52 pm 16:52 Mostly Cloudy 51 10.6 36 2.2 56 56 N 6 9 30.32 1027 10 16 0.00 0.00
5:52 pm 17:52 Mostly Cloudy 50 10 37 2.8 61 61 N 6 9 30.32 1027 10 16 0.00 0.00
6:37 pm 18:37 Mostly Cloudy 50 10 37 2.8 61 61 NNW 6 9 30.33 1027 10 16 0.00 0.00
6:52 pm 18:52 Mostly Cloudy 49 9.4 37 2.8 64 64 NNW 8 13 30.34 1027 10 16 0.00 0.00
7:52 pm 19:52 Cloudy 48 8.9 37 2.8 66 66 Calm 30.34 1027 10 16 0.00 0.00
8:40 pm 20:40 Cloudy 47 8.3 37 2.8 69 69 NNW 3 6 30.35 1028 10 16 0.00 0.00
8:52 pm 20:52 Mostly Cloudy 45 7.2 36 2.2 71 71 NNW 5 7 30.35 1028 10 16 0.00 0.00
9:52 pm 21:52 Mostly Cloudy 45 7.2 37 2.8 74 74 NNE 3 6 30.35 1028 10 16 0.00 0.00
10:52 pm 22:52 Mostly Cloudy 44 6.7 36 2.2 73 73 Calm 30.37 1029 10 16 0.00 0.00
11:52 pm 23:52 Mostly Cloudy 43 6.1 35 1.7 74 74 ESE 6 9 30.37 1028 10 16 0.00 0.00

Powered by AerisWeather